Tracking 18624 objects as of 26-April-2017
HD Live streaming from Space Station
objects crossing your sky now

ACRIMSAT

Track ACRIMSAT now!
10-day predictions
ACRIMSAT is classified as:


NORAD ID: 26033
Int'l Code: 1999-070B
Perigee: 673.1 km
Apogee: 713.6 km
Inclination: 97.9 °
Period: 98.5 minutes
Semi major axis: 7064 km
RCS: 0.514 m2 (medium)
Launch date: December 21, 1999
Source: United States (US)
Launch site: AIR FORCE WESTERN TEST RANGE (AFWTR)

Monitor total solar irradiance (TSI) with maximum precision; ascertain the extent of solar radiation variability.
Your satellite tracking list
Your tracking list is empty





NASA's NSSDC Master Catalog

Two Line Element Set (TLE):
1 26033U 99070B   17114.90090446 +.00000161 +00000-0 +40783-4 0  9999
2 26033 097.9277 258.5120 0028712 150.8026 209.4788 14.62155510924443
Source of the keplerian elements: AFSPC